GRL1 BGSS-BGSF

Flight info

Callsign GRL1
Flight time N/A
Altitude 2500
Route VFR
Aircraft EC25/L-VGD/C

Departure

Time 2026-04-21 09:09
Airport Sisimiut Airport (BGSS)

Arrival

Time N/A
Airport Kangerlussuaq International Airport (BGSF)
Time Latitude Longitude Altitude Speed Heading
2026-04-21 09:00 66.95156 -53.72212 100 ft 0 kts 219°
2026-04-21 09:05 66.95153 -53.72219 106 ft 2 kts 220°
2026-04-21 09:05 66.95134 -53.72242 102 ft 3 kts 194°
2026-04-21 09:06 66.95130 -53.72244 100 ft 0 kts 193°
2026-04-21 09:06 66.95124 -53.72250 113 ft 3 kts 180°
2026-04-21 09:07 66.95080 -53.72241 147 ft 9 kts 165°
2026-04-21 09:07 66.95001 -53.71891 164 ft 34 kts 103°
2026-04-21 09:07 66.94933 -53.71186 224 ft 47 kts 115°
2026-04-21 09:07 66.94851 -53.70300 303 ft 55 kts 113°
2026-04-21 09:08 66.94562 -53.69920 336 ft 51 kts 171°
2026-04-21 09:08 66.94335 -53.70487 517 ft 40 kts 196°
2026-04-21 09:08 66.94382 -53.70759 678 ft 35 kts 135°
2026-04-21 09:08 66.94514 -53.70252 620 ft 40 kts 104°
2026-04-21 09:09 66.94317 -53.69823 662 ft 43 kts 152°
2026-04-21 09:09 66.94003 -53.69718 735 ft 48 kts 163°
2026-04-21 09:09 66.93685 -53.69425 820 ft 51 kts 152°
2026-04-21 09:09 66.93363 -53.68875 813 ft 62 kts 151°
2026-04-21 09:10 66.92940 -53.68425 791 ft 69 kts 159°
2026-04-21 09:10 66.92630 -53.68225 830 ft 69 kts 162°
2026-04-21 09:10 66.92179 -53.67944 958 ft 66 kts 162°
2026-04-21 09:10 66.91746 -53.67585 1055 ft 66 kts 158°
2026-04-21 09:11 66.91315 -53.67120 1126 ft 69 kts 154°
2026-04-21 09:11 66.90874 -53.66582 1180 ft 72 kts 151°
2026-04-21 09:11 66.90405 -53.66032 1235 ft 75 kts 157°
2026-04-21 09:11 66.89911 -53.65641 1313 ft 73 kts 161°
2026-04-21 09:12 66.89422 -53.65339 1417 ft 72 kts 162°
2026-04-21 09:12 66.88928 -53.64985 1468 ft 75 kts 160°
2026-04-21 09:12 66.88425 -53.64534 1495 ft 78 kts 158°
2026-04-21 09:12 66.87923 -53.64004 1535 ft 78 kts 156°
2026-04-21 09:13 66.87439 -53.63420 1611 ft 77 kts 153°
2026-04-21 09:13 66.86964 -53.62783 1617 ft 77 kts 153°
2026-04-21 09:13 66.86478 -53.62094 1607 ft 85 kts 143°
2026-04-21 09:13 66.85941 -53.61291 1581 ft 94 kts 143°
2026-04-21 09:14 66.85329 -53.60544 1518 ft 102 kts 153°
2026-04-21 09:14 66.84620 -53.59951 1407 ft 111 kts 160°
2026-04-21 09:14 66.83861 -53.59525 1289 ft 115 kts 166°
2026-04-21 09:14 66.83063 -53.59260 1184 ft 116 kts 169°
2026-04-21 09:15 66.82263 -53.58982 1115 ft 113 kts 166°
2026-04-21 09:15 66.81506 -53.58612 1035 ft 112 kts 163°
2026-04-21 09:15 66.80766 -53.58143 1033 ft 107 kts 160°
2026-04-21 09:15 66.80053 -53.57587 971 ft 107 kts 158°
2026-04-21 09:16 66.79365 -53.56952 910 ft 106 kts 155°
2026-04-21 09:16 66.78684 -53.56228 859 ft 106 kts 152°
2026-04-21 09:16 66.78016 -53.55451 789 ft 107 kts 156°
2026-04-21 09:16 66.77265 -53.55176 695 ft 102 kts 173°
2026-04-21 09:17 66.76579 -53.55102 698 ft 100 kts 171°
2026-04-21 09:17 66.75880 -53.54961 633 ft 102 kts 170°
2026-04-21 09:17 66.75173 -53.54761 565 ft 102 kts 168°
2026-04-21 09:17 66.74475 -53.54429 503 ft 102 kts 163°
2026-04-21 09:18 66.73794 -53.53928 433 ft 102 kts 159°
2026-04-21 09:18 66.73134 -53.53314 397 ft 100 kts 156°
2026-04-21 09:18 66.72492 -53.52638 359 ft 100 kts 154°
2026-04-21 09:18 66.71865 -53.51904 335 ft 99 kts 152°
2026-04-21 09:19 66.71232 -53.51200 291 ft 99 kts 156°
2026-04-21 09:19 66.70588 -53.50560 249 ft 100 kts 153°
2026-04-21 09:19 66.69929 -53.49928 241 ft 102 kts 155°
2026-04-21 09:19 66.69251 -53.49422 247 ft 101 kts 159°
2026-04-21 09:20 66.68571 -53.48995 262 ft 100 kts 161°
2026-04-21 09:20 66.67892 -53.48636 284 ft 99 kts 163°
2026-04-21 09:20 66.67218 -53.48343 310 ft 98 kts 165°
2026-04-21 09:20 66.66548 -53.48112 458 ft 96 kts 169°
2026-04-21 09:21 66.65931 -53.47944 507 ft 76 kts 169°
2026-04-21 09:21 66.65539 -53.47865 762 ft 41 kts 167°
2026-04-21 09:21 66.65303 -53.47812 939 ft 32 kts 163°
2026-04-21 09:21 66.65083 -53.47725 1045 ft 35 kts 161°
2026-04-21 09:22 66.64756 -53.47556 957 ft 61 kts 161°
2026-04-21 09:22 66.64272 -53.47315 824 ft 79 kts 163°
2026-04-21 09:22 66.63688 -53.47053 666 ft 90 kts 165°
2026-04-21 09:22 66.63105 -53.46757 685 ft 78 kts 160°
2026-04-21 09:23 66.62645 -53.46293 786 ft 66 kts 150°
2026-04-21 09:23 66.62287 -53.45664 943 ft 61 kts 143°
2026-04-21 09:23 66.61928 -53.45166 1023 ft 57 kts 152°
2026-04-21 09:23 66.61550 -53.44890 1040 ft 58 kts 158°
2026-04-21 09:24 66.61115 -53.44712 952 ft 66 kts 162°
2026-04-21 09:24 66.60647 -53.44489 781 ft 69 kts 165°
2026-04-21 09:24 66.60182 -53.44332 699 ft 64 kts 166°
2026-04-21 09:24 66.59751 -53.44048 707 ft 66 kts 159°
2026-04-21 09:25 66.59310 -53.43599 666 ft 70 kts 158°
2026-04-21 09:25 66.58841 -53.43227 669 ft 72 kts 162°
2026-04-21 09:25 66.58385 -53.43047 899 ft 47 kts 166°
2026-04-21 09:25 66.58087 -53.43018 984 ft 47 kts 163°
2026-04-21 09:26 66.57680 -53.42973 948 ft 67 kts 168°
2026-04-21 09:26 66.57298 -53.43123 1282 ft 39 kts 169°
2026-04-21 09:26 66.57044 -53.43372 1553 ft 44 kts 168°
2026-04-21 09:26 66.56699 -53.43459 1658 ft 58 kts 165°
2026-04-21 09:27 66.56243 -53.43385 1706 ft 72 kts 163°
2026-04-21 09:27 66.55718 -53.43205 1806 ft 74 kts 163°
2026-04-21 09:27 66.55274 -53.42964 1987 ft 66 kts 160°
2026-04-21 09:27 66.54757 -53.42940 1883 ft 81 kts 174°
2026-04-21 09:28 66.54291 -53.43199 2150 ft 56 kts 178°
2026-04-21 09:28 66.53917 -53.43412 2171 ft 58 kts 173°
2026-04-21 09:28 66.53490 -53.43506 2165 ft 65 kts 173°
2026-04-21 09:28 66.53022 -53.43606 2138 ft 71 kts 173°
2026-04-21 09:29 66.52517 -53.43723 2059 ft 75 kts 173°
2026-04-21 09:29 66.52046 -53.43892 2311 ft 56 kts 174°
2026-04-21 09:29 66.51719 -53.44045 2388 ft 43 kts 171°
2026-04-21 09:29 66.51413 -53.44078 1981 ft 46 kts 165°
2026-04-21 09:30 66.51072 -53.44025 1728 ft 55 kts 163°
2026-04-21 09:30 66.50659 -53.43912 1726 ft 64 kts 161°
2026-04-21 09:30 66.50188 -53.43765 1791 ft 74 kts 160°
2026-04-21 09:30 66.49652 -53.43647 2065 ft 79 kts 166°
2026-04-21 09:31 66.49126 -53.43620 2263 ft 65 kts 171°
2026-04-21 09:31 66.48816 -53.43788 2718 ft 30 kts 173°
2026-04-21 09:31 66.48718 -53.44067 2786 ft 16 kts 172°
2026-04-21 09:31 66.48693 -53.44245 2755 ft 7 kts 166°
2026-04-21 09:32 66.48596 -53.44254 2717 ft 29 kts 163°
2026-04-21 09:32 66.48288 -53.44298 2524 ft 51 kts 171°
2026-04-21 09:32 66.47947 -53.44560 2650 ft 41 kts 176°
2026-04-21 09:32 66.47697 -53.44743 2607 ft 38 kts 170°
2026-04-21 09:33 66.47393 -53.44715 2389 ft 50 kts 162°
2026-04-21 09:33 66.47020 -53.44569 2459 ft 55 kts 163°
2026-04-21 09:33 66.46682 -53.44357 2631 ft 45 kts 161°
2026-04-21 09:33 66.46495 -53.44186 2598 ft 11 kts 156°
2026-04-21 09:34 66.46557 -53.43591 2239 ft 72 kts 87°
2026-04-21 09:34 66.46525 -53.42404 2435 ft 60 kts 128°
2026-04-21 09:34 66.46307 -53.42109 2810 ft 27 kts 151°
2026-04-21 09:34 66.46063 -53.42012 2793 ft 30 kts 167°
2026-04-21 09:35 66.45791 -53.41730 3534 ft 58 kts 150°
2026-04-21 09:35 66.45805 -53.40950 4448 ft 86 kts 110°
2026-04-21 09:35 66.46127 -53.39229 4721 ft 116 kts 96°
2026-04-21 09:35 66.46424 -53.37404 4742 ft 109 kts 108°
2026-04-21 09:36 66.46594 -53.35681 4781 ft 93 kts 120°
2026-04-21 09:36 66.46471 -53.34290 4842 ft 79 kts 131°
2026-04-21 09:36 66.46220 -53.32893 4446 ft 100 kts 109°
2026-04-21 09:36 66.46450 -53.31008 3916 ft 123 kts 72°
2026-04-21 09:37 66.46778 -53.29088 3513 ft 117 kts 76°
2026-04-21 09:37 66.47101 -53.27272 3312 ft 112 kts 73°
2026-04-21 09:37 66.47545 -53.25809 3266 ft 105 kts 46°
2026-04-21 09:37 66.47967 -53.24358 3104 ft 99 kts 63°
2026-04-21 09:38 66.48180 -53.22811 3068 ft 91 kts 76°
2026-04-21 09:38 66.48277 -53.21288 3099 ft 86 kts 88°
2026-04-21 09:38 66.48215 -53.19881 3123 ft 78 kts 111°
2026-04-21 09:38 66.48226 -53.18433 3079 ft 100 kts 65°
2026-04-21 09:39 66.48854 -53.17191 2824 ft 132 kts 27°
2026-04-21 09:39 66.49659 -53.16194 2792 ft 113 kts 29°
2026-04-21 09:39 66.50351 -53.15311 2790 ft 114 kts 30°
2026-04-21 09:39 66.51089 -53.14095 2427 ft 133 kts 50°
2026-04-21 09:40 66.51480 -53.12344 2441 ft 117 kts 74°
2026-04-21 09:40 66.51633 -53.10339 2422 ft 104 kts 85°
2026-04-21 09:40 66.51713 -53.08709 2592 ft 97 kts 84°
2026-04-21 09:40 66.51866 -53.06788 2370 ft 114 kts 82°
2026-04-21 09:41 66.52035 -53.05050 2516 ft 93 kts 77°
2026-04-21 09:41 66.52226 -53.03626 2677 ft 80 kts 69°
2026-04-21 09:41 66.52451 -53.02431 2828 ft 72 kts 60°
2026-04-21 09:41 66.52721 -53.01421 2970 ft 68 kts 59°
2026-04-21 09:42 66.53044 -53.00563 3087 ft 68 kts 45°
2026-04-21 09:42 66.53429 -52.99855 3200 ft 70 kts 36°
2026-04-21 09:42 66.53899 -52.98973 3075 ft 108 kts 49°
2026-04-21 09:42 66.54263 -52.97028 2708 ft 119 kts 71°
2026-04-21 09:43 66.54472 -52.95515 3156 ft 71 kts 63°
2026-04-21 09:43 66.54631 -52.94499 3334 ft 56 kts 65°
2026-04-21 09:43 66.54718 -52.93623 3442 ft 47 kts 70°
2026-04-21 09:43 66.54741 -52.92864 3521 ft 40 kts 75°
2026-04-21 09:44 66.54733 -52.92054 3487 ft 64 kts 83°
2026-04-21 09:44 66.54757 -52.90650 3332 ft 95 kts 86°
2026-04-21 09:44 66.54792 -52.88800 3114 ft 115 kts 87°
2026-04-21 09:44 66.54825 -52.86689 2871 ft 121 kts 88°
2026-04-21 09:45 66.54844 -52.84720 2904 ft 105 kts 87°
2026-04-21 09:45 66.54860 -52.82982 2960 ft 95 kts 85°
2026-04-21 09:45 66.55241 -52.81794 2997 ft 95 kts
2026-04-21 09:45 66.55978 -52.81901 2778 ft 121 kts 346°
2026-04-21 09:46 66.56772 -52.82149 2971 ft 105 kts 344°
2026-04-21 09:46 66.57471 -52.82422 3141 ft 99 kts 339°
2026-04-21 09:46 66.58149 -52.82786 3240 ft 102 kts 337°
2026-04-21 09:46 66.58865 -52.83188 3331 ft 108 kts 338°
2026-04-21 09:47 66.59611 -52.83595 3480 ft 111 kts 339°
2026-04-21 09:47 66.60332 -52.84082 3737 ft 102 kts 329°
2026-04-21 09:47 66.60940 -52.84586 4048 ft 84 kts 326°
2026-04-21 09:47 66.61489 -52.84984 4241 ft 77 kts 326°
2026-04-21 09:48 66.61983 -52.85445 4419 ft 84 kts 311°
2026-04-21 09:48 66.62567 -52.86192 4655 ft 98 kts 316°
2026-04-21 09:48 66.63167 -52.86853 4988 ft 95 kts 321°
2026-04-21 09:48 66.63700 -52.87326 5409 ft 67 kts 357°
2026-04-21 09:49 66.63973 -52.87247 5395 ft 29 kts 79°
2026-04-21 09:49 66.64079 -52.86595 5230 ft 43 kts 133°
2026-04-21 09:49 66.63899 -52.86376 5128 ft 45 kts 192°
2026-04-21 09:49 66.63732 -52.86478 5122 ft 7 kts 190°
2026-04-21 09:50 66.63657 -52.86500 5049 ft 8 kts 192°
2026-04-21 09:50 66.63641 -52.86513 5000 ft 8 kts 189°
2026-04-21 09:50 66.63565 -52.86414 4865 ft 2 kts 131°
2026-04-21 09:51 66.63564 -52.86412 4864 ft 0 kts 131°